Tracking 29892 objects as of 21-Nov-2024
HD Live streaming from Space Station
objects crossing your sky now

STARLINK-30560

Track STARLINK-30560 now!
10-day predictions
STARLINK-30560 is classified as:


NORAD ID: 58038
Int'l Code: 2023-156L
Perigee: 469.7 km
Apogee: 471.0 km
Inclination: 53.2 °
Period: 93.9 minutes
Semi major axis: 6841 km
RCS: Unknown
Launch date: October 9, 2023
Source: United States (US)
Launch site: AIR FORCE WESTERN TEST RANGE (AFWTR)
Your satellite tracking list
Your tracking list is empty




NASA's NSSDC Master Catalog

Two Line Element Set (TLE):
1 58038U 23156L   24325.84567331  .00003902  00000-0  12726-3 0  9999
2 58038  53.1572 124.6170 0000972 112.0606 248.0499 15.34220821 63434
Source of the keplerian elements: AFSPC